www.pogodaiklimat.ru
ПОГОДА в Энугу
Время
(UTC), дата
23 15.01
00 16.01
01 16.01
05 16.01
08 16.01
09 16.01
12 16.01
14 16.01
15 16.01
17 16.01
18 16.01
19 16.01
20 16.01
21 16.01
22 16.01
23 16.01
06 17.01
09 17.01
12 17.01
14 17.01
15 17.01
18 17.01
19 17.01
02 18.01
03 18.01
04 18.01
08 18.01
09 18.01
11 18.01
12 18.01
13 18.01
14 18.01
15 18.01
16 18.01
17 18.01
18 18.01
21 18.01
22 18.01
23 18.01
00 19.01
01 19.01
05 19.01
08 19.01
09 19.01
10 19.01
11 19.01
12 19.01
13 19.01
14 19.01
16 19.01
18 19.01
19 19.01
21 19.01
22 19.01
23 19.01
01 20.01
02 20.01
03 20.01
06 20.01
11 20.01
12 20.01
13 20.01
14 20.01
15 20.01
18 20.01
19 20.01
20 20.01
21 20.01
22 20.01
00 21.01
01 21.01
02 21.01
03 21.01
04 21.01
05 21.01
06 21.01
08 21.01
09 21.01
11 21.01
12 21.01
15 21.01
17 21.01
18 21.01
20 21.01
22 21.01
23 21.01
00 22.01
04 22.01
05 22.01
10 22.01
11 22.01
13 22.01
14 22.01
15 22.01
16 22.01
17 22.01
18 22.01
Ветер
(напр.,м/с)
Видим. Явления Облачность Т
(С)
Тd
(С)
f
(%)
Тe
(С)
Тes
(С)
Комфортность P
(гПа)
Po
(гПа)
Тmin
(С)
Tmax
(С)
R
(мм)
R24
(мм)
S
(см)
Ю 2 6000 м ясно +26.0 +20.0 70 +32 +32 очень
душно
1009.0 992.9
ЮЗ 4 6000 м мгла 9/0
[Cs]
+26.0 +20.9 74 +33 +33 очень
душно
1007.5 1091.4
ЮЗ 2 6000 м ясно +26.0 +21.0 74 +33 +33 очень
душно
1009.0 992.9
нст 1 8000 м 5/5 240 м +24.0 +21.0 83 +30 +30 очень
душно
1010.0 993.8
нст 1 7000 м ясно +26.0 +23.0 84 +35 +35 очень
душно
1012.0 995.9
Ю 3 8000 м мгла 9/4 330 м
[Cu med, cong Cs]
+28.9 +23.5 73 +39 +44 очень
душно
1009.4 1093.3
В 4 10 км 9/6 400 м
[Cu med, cong Cs]
+32.0 +21.2 53 +40 +44 очень
душно
1007.2 1091.4
ЮВ 2 10 км 5/5 420 м +33.0 +19.0 44 +38 +44 очень
душно
1007.0 991.3
ЮВ 5 10 км 9/3 450 м
[Cu med, cong Cs]
+34.2 +18.9 41 +39 +41 очень
душно
1005.1 1089.3
нст 1 8000 м ясно +33.0 +20.0 46 +39 +39 очень
душно
1007.0 991.3
штиль 0 10 км мгла 9/0
[Cs]
+31.2 +21.4 56 +39 +39 очень
душно
1005.9 1090.1
штиль 0 8000 м ясно +29.0 +23.0 70 +39 +39 очень
душно
1009.0 993.1
С 2 8000 м ясно +28.0 +24.0 79 +39 +39 очень
душно
1009.0 993.1
ЮВ 3 8000 м мгла 9/0
[Cs]
+26.8 +22.1 75 +35 +35 очень
душно
1007.8 1091.7
СЗ 2 8000 м ясно +26.0 +23.0 84 +35 +35 очень
душно
1010.0 993.9
штиль 0 7000 м ясно +25.0 +22.0 83 +32 +32 очень
душно
1010.0 993.9
В 2 6000 м мгла 9/0
[Cs]
+23.5 +22.8 96 +31 +31 очень
душно
1008.8 1092.3 +23.0
ЮВ 3 4000 м мгла 9/3 330 м
[Cu med, cong Cs]
+27.8 +23.5 77 +38 +43 очень
душно
1010.7 1094.6
Ю 3 8000 м мгла 9/4 420 м
[Cu med, cong Ac trans Cs]
+32.5 +20.9 50 +40 +45 очень
душно
1008.3 1092.5
В 2 8000 м ясно +34.0 +19.0 41 +39 +39 очень
душно
1008.0 992.4
ЮВ 6 8000 м мгла 9/0
[Cs]
+35.0 +18.4 38 +39 +41 очень
душно
1005.4 1089.6
штиль 0 8000 м мгла 9/0
[Cs]
+31.8 +20.2 50 +38 +38 очень
душно
1005.6 1089.8 +35.0
штиль 0 7000 м ясно +29.0 +21.0 62 +36 +36 очень
душно
1008.0 992.1
нст 1 6000 м ясно +23.0 +19.0 78 +29 +29 очень
душно
1009.0 992.8
штиль 0 6000 м мгла 9/0
[Cs]
+22.6 +19.2 81 +29 +29 очень
душно
1008.1 1091.6
нст 1 н/о ясно +23.0 +19.0 78 +29 +29 очень
душно
1010.0 993.7
нст 1 4000 м мгла ясно +25.0 +21.0 78 +31 +31 очень
душно
1012.0 995.8
СЗ 3 7000 м мгла 9/0
[Cs]
+28.2 +23.6 76 +38 +46 очень
душно
1011.2 1095.1
В 3 10 км ясно +33.0 +18.0 41 +37 +52 опасность
солнечного
удара
1010.0 994.3
СВ 7 10 км 9/0
[Cs]
+33.4 +16.8 37 +36 +40 очень
душно
1007.7 1091.9
В 3 10 км ясно +35.0 +17.0 34 +38 +50 очень
душно
1008.0 992.4
СВ 3 8000 м ясно +36.0 +15.0 29 +38 +38 очень
душно
1007.0 991.4
СВ 5 8000 м 9/0
[Cs]
+35.5 +14.9 29 +37 +40 душно 1005.1 1089.6
ЮВ 3 7000 м ясно +35.0 +18.0 37 +39 +39 очень
душно
1007.0 991.4
ЮВ 2 7000 м ясно +34.0 +19.0 41 +39 +39 очень
душно
1007.0 991.4
Ю 2 8000 м 9/0
[Cs]
+32.6 +19.8 47 +39 +39 очень
душно
1006.2 1090.4 +36.3
СЗ 5 7000 м мгла 9/0
[Cs]
+26.8 +18.3 60 +32 +32 очень
душно
1009.1 1093.0
штиль 0 7000 м ясно +27.0 +18.0 58 +32 +32 очень
душно
1011.0 994.9
штиль 0 7000 м ясно +26.0 +19.0 65 +31 +31 очень
душно
1011.0 994.9
штиль 0 7000 м мгла 9/0
[Cs]
+25.4 +19.6 70 +31 +31 очень
душно
1009.4 1093.3
штиль 0 7000 м ясно +25.0 +20.0 74 +31 +31 очень
душно
1010.0 993.9
В 3 10 км ясно +24.0 +22.0 89 +31 +31 очень
душно
1012.0 995.8
В 2 8000 м 2/2 300 м +26.0 +21.0 74 +33 +38 очень
душно
1014.0 997.9
В 3 8000 м мгла 9/3 330 м
[Cu med, cong Cs]
+28.5 +23.0 72 +38 +43 очень
душно
1011.4 1095.3
В 2 10 км 5/5 420 м +31.0 +22.0 59 +40 +47 очень
душно
1013.0 997.1
В 4 10 км 2/2 420 м +32.0 +19.0 46 +37 +47 очень
душно
1012.0 996.2
СВ 9 10 км 9/0
[Cs]
+34.5 +12.1 26 +35 +36 очень
жарко
1010.9 1095.1
СВ 5 10 км ясно +35.0 +8.0 19 +33 +41 жарко 1010.0 994.3
В 3 7000 м ясно +36.0 +8.0 18 +34 +34 очень
жарко
1009.0 993.4
В 3 4000 м мгла ясно +35.0 +9.0 20 +33 +33 жарко 1008.0 992.3
штиль 0 4000 м мгла 9/0
[Cs]
+30.4 +13.4 35 +32 +32 жарко 1008.1 1092.3 +36.0
СЗ 2 4000 м мгла ясно +29.0 +14.0 40 +31 +31 жарко 1010.0 994.0
СЗ 5 4000 м мгла 9/0
[Cs]
+27.1 +14.4 46 +30 +30 душно 1010.6 1094.5
СЗ 2 4000 м мгла ясно +26.0 +15.0 51 +29 +29 душно 1011.0 994.9
СЗ 2 4000 м мгла ясно +26.0 +15.0 51 +29 +29 душно 1012.0 995.8
СЗ 2 5000 м мгла ясно +25.0 +15.0 54 +28 +28 жарко 1011.0 994.8
нст 1 5000 м мгла ясно +24.0 +16.0 61 +27 +27 жарко 1011.0 994.8
СЗ 3 5000 м мгла 9/0
[Cs]
+20.0 +12.0 60 +22 +22 комфорт 1009.8 1093.3
СЗ 4 1500 м мгла 9/0
[Cs]
+19.6 +12.1 62 +21 +21 комфорт 1010.6 1094.1 +19.4
В 7 2000 м мгла ясно +32.0 +6.0 20 +30 +30 жарко 1013.0 997.1
В 11 2000 м мгла 9/0
[Cs]
+32.8 +3.3 16 +30 +30 жарко 1009.2 1093.4
В 4 2000 м мгла ясно +34.0 +6.0 18 +32 +32 жарко 1010.0 994.2
В 5 2000 м мгла ясно +35.0 +8.0 19 +33 +33 жарко 1009.0 993.3
ЮВ 5 2000 м мгла 9/0
[Cs]
+34.9 +11.3 24 +34 +37 очень
жарко
1005.9 1090.3
штиль 0 2000 м мгла 9/0
[Cs]
+30.1 +13.4 36 +32 +32 жарко 1007.4 1091.6 +35.0
СЗ 2 2000 м мгла ясно +28.0 +14.0 42 +30 +30 жарко 1010.0 994.0
СЗ 3 2000 м мгла ясно +26.0 +15.0 51 +29 +29 душно 1011.0 994.9
СЗ 4 2000 м мгла 9/0
[Cs]
+24.0 +12.9 50 +26 +26 жарко 1009.9 1093.4
З 2 2000 м мгла ясно +24.0 +13.0 50 +26 +26 жарко 1011.0 994.7
СЗ 4 1500 м мгла 9/0
[Cs]
+21.0 +13.0 60 +24 +24 комфорт 1010.2 1093.7
СЗ 3 1500 м мгла ясно +21.0 +13.0 60 +24 +24 комфорт 1011.0 994.6
СЗ 2 800 м ясно +21.0 +13.0 60 +24 +24 комфорт 1011.0 994.6
СЗ 3 800 м мгла 9/0
[Cs]
+20.3 +13.0 63 +23 +23 комфорт 1009.9 1093.4
СЗ 2 800 м ясно +20.0 +13.0 64 +22 +22 комфорт 1011.0 994.5
СЗ 2 800 м ясно +20.0 +13.0 64 +22 +22 комфорт 1011.0 994.5
СЗ 3 800 м пыльный позёмок 9/0
[Cs]
+20.0 +13.0 64 +22 +22 комфорт 1010.4 1093.9 +19.7
штиль 0 1500 м мгла ясно +23.0 +14.0 57 +26 +26 жарко 1013.0 996.7
В 11 7000 м мгла 9/0
[Cs]
+27.1 +5.3 25 +26 +26 жарко 1011.7 1095.6
В 6 7000 м ясно +30.0 +1.0 15 +27 +27 жарко 1012.0 996.0
В 12 7000 м мгла 9/0
[Cs]
+31.5 +4.5 18 +29 +29 жарко 1009.5 1093.7
В 7 6000 м мгла 9/0
[Cs]
+34.3 +8.8 21 +33 +34 жарко 1006.7 1090.9
нст 1 5000 м мгла ясно +32.0 +10.0 26 +32 +32 жарко 1009.0 993.2
штиль 0 3000 м мгла 9/0
[Cs]
+30.3 +14.1 37 +32 +32 жарко 1007.4 1091.6 +34.4
СЗ 2 3000 м мгла ясно +26.0 +14.0 48 +28 +28 жарко 1011.0 994.9
СЗ 2 3000 м мгла ясно +24.0 +12.0 47 +26 +26 жарко 1012.0 995.7
СЗ 2 3000 м мгла ясно +24.0 +11.0 44 +25 +25 комфорт 1012.0 995.7
СЗ 4 3000 м мгла 9/0
[Cs]
+21.5 +12.6 57 +24 +24 комфорт 1010.3 1093.8
СЗ 2 3000 м мгла ясно +20.0 +14.0 68 +23 +23 комфорт 1012.0 995.5
СЗ 2 3000 м мгла ясно +20.0 +12.0 60 +22 +22 комфорт 1012.0 995.5
В 3 1500 м мгла ясно +29.0 +6.0 23 +28 +28 жарко 1013.0 996.9
СВ 5 1500 м мгла ясно +30.0 +6.0 22 +29 +29 жарко 1013.0 997.0
В 3 1500 м мгла ясно +32.0 +9.0 24 +31 +31 жарко 1010.0 994.2
В 2 2000 м мгла ясно +33.0 +9.0 23 +32 +32 жарко 1009.0 993.2
СВ 4 2000 м мгла 9/0
[Cs]
+33.0 +8.1 21 +31 +35 жарко 1007.0 1091.2
В 2 2000 м мгла ясно +33.0 +9.0 23 +32 +32 жарко 1009.0 993.2
СВ 2 2000 м мгла ясно +32.0 +11.0 28 +32 +32 жарко 1008.0 992.2
СЗ 3 2000 м мгла 9/0
[Cs]
+29.0 +12.0 35 +30 +30 жарко 1007.4 1091.3 +33.4
Местоположение метеостанции Энугу (Нигерия): широта 6.47 долгота 7.56 высота над уровнем моря 137 м.
В архиве по умолчанию представлена погода в Энугу за последнюю неделю. Архивные данные за месяц целиком и за предыдущие месяцы, начиная с января 2011 года, Вы можете получить, выбрав интересующий диапазон дат из раскрывающегося списка и нажав кнопку "Найти!".
*Определитесь, кто Вы:
Внимание! Время в таблицах - всемирное. Для получения местного времени необходимо прибавить поправку, которая равна 3 ч.
Смотрите также архив погоды в соседних городах и на ближайших метеорологических станциях:
Партнеры нашего сайта:      
Пояснения к столбцам:
  • Ветер - указаны скорость ветра в м/с - средняя за 10 мин, порывы в срок и между сроками (в фигурных скобках) и направление, откуда дует ветер: С - северный,
  • СВ - северо-восточный, В - восточный, ЮВ - юго-восточный, Ю - южный, ЮЗ - юго-западный, З - западный, СЗ - северо-западный.
  • Видимость - горизонтальная дальность видимости в метрах или километрах. При видимости от 1 до 10 км при отсутствии осадков обычно наблюдается дымка, при ухудшении видимости до 1 км и менее - туман. В сухую погоду видимость может ухудшаться дымом, пылью или мглою.
  • Явления - указаны атмосферные явления, наблюдавшиеся в срок или в последний час перед сроком; фигурными скобками обозначены явления, наблюдавшиеся между сроками (за 1-3 часа до срока); квадратными скобками обозначены град или гололедные отложения с указанием их диаметра в мм.
  • Облачность - указаны через наклонную черту общая и нижняя облачность в баллах и высота нижней границы облаков в метрах; квадратными скобками обозначены формы облаков: Ci - перистые, Cs - перисто-слоистые, Cc - перисто-кучевые, Ac - высококучевые, As - высокослоистые, Sc - слоисто-кучевые, Ns - слоисто-дождевые, Cu - кучевые, Cb - кучево-дождевые. Подробнее классификацию облаков см. в Атласе облаков (PDF).
  • T - Температура воздуха - температура, измеренная на высоте 2 м над землей.
  • Td - Температура точки росы - температура, при понижении до которой содержащийся в воздухе водяной пар достигнет насыщения.
  • f - Относительная влажность воздуха - влажноcть воздуха, измеренная на высоте 2 м над землей.
  • Te - Эффективная температура - температура, которую ощущает одетый по сезону человек в тени. Характеристика душности погоды. При расчете учитывается влияние влажности воздуха и скорости ветра на теплоощущения человека.
  • Tes - Эффективная температура на солнце - температура, которую ощущает человек, с поправкой на солнечный нагрев. Характеристика знойности погоды. Зависит от высоты солнца над горизонтом, облачности и скорости ветра. Ночью, в пасмурную погоду, а также при ветре 12 м/с и более поправка равна нулю.
  • P - Атмосферное давление - приведенное к уровню моря атмосферное давление.
  • Po - Атмосферное давление - измеренное на уровне метеостанции атмосферное давление.
  • Tmin - Минимальная температура - минимум температуры воздуха на высоте 2 м над землей.
  • Tmax - Максимальная температура - максимум температуры воздуха на высоте 2 м над землей.
  • R - Количество осадков - Количество выпавших осадков за период времени, мм. При наведении курсора мыши на число - период времени, за который выпало указанное количество осадков.
  • R24 - Количество осадков - Количество выпавших осадков за 24 часа, мм.
  • S - Снежный покров - Высота снежного покрова, см. При наведении курсора мыши на число - состояние снежного покрова и степень покрытия местности в баллах.